UFO 4 (USA 108)

Last updated on Sun Jun 21 2026 00:03:03 GMT+0000 (Coordinated Universal Time)

1 23467U 95003A 26171.35478845 -.00000032 00000+0 00000+0 0 9994 2 23467 9.6904 13.2184 0003078 71.6725 123.5778 1.00272715114988
UTC large
Height (km)
Speed (km/s)
/
Latitude / Longitude
Inclination (degrees)
Orbital Period (minutes)
Azimuth
Elevation
Range (km)
Doppler Factor

Next 0 passes for location: London (51.5072 / 0.1276)

No passes found over London.
UFO 4 (USA 108)